Other Surface Observations
Issued by NWS Tucson, AZ

Home | Current Version | Previous Version | Text Only | Print | Product List | Glossary On
Versions: 1 2 3 4 5 6 7 8 9 10 11 12 13 14 15 16 17 18 19 20 21 22 23 24 25 26 27 28 29 30 31 32 33 34 35 36 37 38 39 40 41 42 43 44 45 46 47 48 49 50
000
SXUS55 KTWC 160716
OSOTWC

WEATHER ROUNDUP FOR SOUTHEAST ARIZONA
NATIONAL WEATHER SERVICE TUCSON AZ
1215 AM MST TUE SEP 16 2014

AZZ504>506-514-160815-
LOCATION       SKY/WX    TMP DP  RH WIND       PRES   REMARKS
TUCSON         CLOUDY    83  64  52 SE7       30.02R
DAVIS-MONTHAN  HVY RAIN  77  68  73 S16G30    30.01R
CHILDRENS PARK N/A       84  63  49 S6                PIMA CO DEQ
ALVERNON/22ND  N/A      N/A N/A N/A N/A               PIMA CO DEQ
CHERRY/GLENN   N/A      N/A N/A N/A N/A               PIMA CO DEQ
TANGERINE      N/A       83 N/A N/A S7                PIMA CO DEQ
CONTL RANCH    N/A       85  64  49 SE6               PIMA CO DEQ
GRANT/1ST      N/A       84  64  51 S5                PIMA CO DEQ
CRAYCROFT/22ND N/A      N/A N/A N/A N/A               PIMA CO DEQ
GOLFLINKS/KOLB N/A       81  62  53 SE4               PIMA CO DEQ
AJO/12TH       N/A       83  64  53 S9                PIMA CO DEQ
SAGUARO EAST   N/A      N/A N/A N/A N/A               PIMA CO DEQ
FAIRGROUNDS    N/A       80 N/A N/A SE8               PIMA CO DEQ
SAGUARO        N/A       81  63  54 NW4               *SABINO CYN
SAN CARLOS     N/A       78  62  57 W4                *SAN CARLOS
GREEN VALLEY   N/A       78  64  63 SW5               PIMA CO DEQ
HORSE CAMP CYN N/A       77  56  49 SE13G28           *ARAVAIPA CYN
RINCON MTNS    N/A       56  55  98 E7G13             *NR MANNING CAMP
$$

AZZ509>511-160815-
LOCATION       SKY/WX    TMP DP  RH WIND       PRES   REMARKS
SAFFORD        CLOUDY    79  58  48 E15       30.06S
STRAY HORSE    N/A       55  50  82 NE3               *
TRAIL CABIN    N/A       61  58  90 E5                *N OF GRANVILLE
BLACK HILLS    N/A       78  58  51 S11G19            *N OF FT THOMAS
DRY LAKE       N/A       58  50  76 SE8G13            *NATANES MTNS
NOON CREEK     N/A       66  62  88 SW5               *PINALENO MTNS
COLUMBINE      N/A       52  51  97 CALM              *PINALENO MTNS
GUTHRIE        N/A       64  55  73 E13G19            *SW OF GUTHRIE
$$

AZZ502-503-513-160815-
LOCATION       SKY/WX    TMP DP  RH WIND       PRES   REMARKS
NOGALES        CLOUDY    72  61  68 S12       30.11R
SELLS          N/A       78  64  63 SE3G10            *
SASABE         N/A       71  67  86 CALM              *ALTAR VLY
HOPKINS        N/A       61  59  93 E18G27            *SANTA RITA MTNS
CARR CYN       N/A       69  53  56 S6G18             *W OF HEREFORD
$$

AZZ507-508-512-160815-
LOCATION       SKY/WX    TMP DP  RH WIND       PRES   REMARKS
SIERRA VISTA   LGT RAIN  70  57  64 SE16G26   30.17R
DOUGLAS        CLOUDY    68  64  87 S8        30.17S
EMPIRE MTNS    N/A       70  61  73 SE5G10            *LAS CIENEGAS NCA
MULESHOE RANCH N/A       73  56  56 SE11G20           *PRESERVE
HEADQUARTERS   N/A       68  61  77 W3                *CHIRICAHUA MTNS
$$

.............................NOTES.............................
THIS IS AN AUTOMATED COLLECTIVE WITH MINIMAL QUALITY CONTROL.
PIMA CO DEQ SITES HAVE NONSTANDARD WIND SENSOR HEIGHTS.
PIMA CO DEQ SITES DO NOT REPORT WIND GUSTS.
* INDICATES WIND SENSORS LOCATED AT 20 FEET INSTEAD OF 33 FEET.
..............................KEY..............................
SKY/WX - SKY CONDITION/WEATHER
TMP    - TEMPERATURE IN FAHRENHEIT
DP     - DEWPOINT IN FAHRENHEIT
RH     - RELATIVE HUMIDITY IN PERCENT
WIND   - DIRECTION AND SPEED IN MILES PER HOUR (MPH)
VRB    - VARIABLE WIND DIRECTION
PRES   - MEAN SEA LEVEL PRESSURE IN INCHES OF MERCURY
         F - FALLING PRESSURE   R - RISING PRESSURE
         S - STEADY PRESSURE
VSB    - VISIBILITY IN MILES
HX     - HEAT INDEX IN FAHRENHEIT
WCI    - WIND CHILL INDEX IN FAHRENHEIT
N/A    - NOT AVAILABLE
AFB    - AIR FORCE BASE
         DAVIS-MONTHAN IS DAVIS-MONTHAN AIR FORCE BASE
CYN    - CANYON
MTNS   - MOUNTAINS
NCA    - NATIONAL CONSERVATION AREA
NR     - NEAR
VLY    - VALLEY
CONTL  - CONTINENTAL
PIMA CO DEQ - PIMA COUNTY DEPT OF ENVIRONMENTAL QUALITY



USA.gov is the U.S. government's official web portal to all federal, state and local government web resources and services.